FW5255 Weather Reports


Display with metric or nautical units.
time (UTC)temp
F
wind
direction
speed
MPH
gust
MPH
rain 1hr
in
rain 24hr
in
rain mn
in
humidity
%
barometer
mb
20260506172327 67 35 0.0 1.0 0.00 0.00 0.00 83 1008.7
20260506171824 67 274 0.0 0.0 0.00 0.00 0.00 81 1009.0
20260506171321 67 215 0.0 1.0 0.00 0.00 0.00 81 1008.9
20260506170819 67 193 0.0 0.0 0.00 0.00 0.00 82 1009.0
20260506170314 67 263 0.0 0.0 0.00 0.00 0.00 80 1008.9
20260506165814 68 275 0.0 0.0 0.00 0.00 0.00 83 1009.2
20260506165311 68 264 0.0 0.0 0.00 0.00 0.00 83 1009.1
20260506164807 68 283 0.0 0.0 0.00 0.00 0.00 82 1008.8
20260506164304 67 238 0.0 0.0 0.00 0.00 0.00 83 1009.3
20260506163801 67 268 0.0 0.0 0.00 0.00 0.00 84 1009.2
20260506163255 67 234 0.0 0.0 0.00 0.00 0.00 81 1009.6
20260506162752 67 285 0.0 0.0 0.00 0.00 0.00 80 1009.4
20260506162250 68 223 0.0 0.0 0.00 0.00 0.00 78 1009.8
20260506161741 68 196 0.0 0.0 0.00 0.00 0.00 79 1009.8
20260506161239 68 279 0.0 0.0 0.00 0.00 0.00 79 1010.0
20260506160736 68 277 0.0 0.0 0.00 0.00 0.00 78 1010.1
20260506160232 68 267 0.0 0.0 0.00 0.00 0.00 77 1010.4
20260506155731 68 265 0.0 0.0 0.00 0.00 0.00 75 1010.2
20260506155227 68 268 0.0 0.0 0.00 0.00 0.00 77 1010.2
20260506153335 68 230 0.0 0.0 0.00 0.00 0.00 75 1010.1
20260506152832 68 271 0.0 0.0 0.00 0.00 0.00 72 1010.1
20260506152329 69 282 0.0 0.0 0.00 0.00 0.00 72 1010.2
20260506151828 69 274 0.0 0.0 0.00 0.00 0.00 70 1010.3
20260506151324 69 258 0.0 0.0 0.00 0.00 0.00 71 1010.2
20260506150821 69 245 0.0 0.0 0.00 0.00 0.00 69 1010.3
20260506150318 70 262 0.0 0.0 0.00 0.00 0.00 69 1010.3
20260506145814 69 275 0.0 0.0 0.00 0.00 0.00 69 1010.0
20260506145311 69 280 0.0 0.0 0.00 0.00 0.00 69 1010.3
20260506144809 69 258 0.0 0.0 0.00 0.00 0.00 70 1010.2
20260506144305 68 323 0.0 0.0 0.00 0.00 0.00 70 1010.3
20260506143803 68 332 1.0 1.0 0.00 0.00 0.00 70 1010.5
20260506143300 68 237 0.0 0.0 0.00 0.00 0.00 70 1010.4
20260506142758 68 273 0.0 0.0 0.00 0.00 0.00 70 1010.2
20260506142256 69 283 0.0 0.0 0.00 0.00 0.00 69 1010.3
20260506141754 69 302 0.0 0.0 0.00 0.00 0.00 68 1010.2
20260506141252 69 268 0.0 0.0 0.00 0.00 0.00 69 1010.2
20260506140749 69 92 0.0 0.0 0.00 0.00 0.00 69 1010.3
20260506140246 69 271 0.0 0.0 0.00 0.00 0.00 68 1010.3
20260506135743 69 251 0.0 1.0 0.00 0.00 0.00 69 1010.1
20260506135240 68 274 0.0 0.0 0.00 0.00 0.00 70 1010.0
20260506134736 68 247 0.0 0.0 0.00 0.00 0.00 71 1010.2
20260506134233 68 288 0.0 0.0 0.00 0.00 0.00 71 1009.9
20260506133730 68 278 0.0 0.0 0.00 0.00 0.00 71 1010.2
20260506133226 68 270 0.0 0.0 0.00 0.00 0.00 71 1010.0
20260506132724 68 273 0.0 0.0 0.00 0.00 0.00 70 1010.0
20260506132221 68 196 0.0 0.0 0.00 0.00 0.00 71 1010.3
20260506131719 68 288 0.0 0.0 0.00 0.00 0.00 70 1010.1
20260506131214 68 250 0.0 0.0 0.00 0.00 0.00 68 1010.3
20260506130711 69 272 0.0 0.0 0.00 0.00 0.00 69 1010.3
20260506130208 69 273 0.0 0.0 0.00 0.00 0.00 69 1010.4
20260506125707 69 269 0.0 0.0 0.00 0.00 0.00 69 1010.3
20260506125204 69 314 0.0 0.0 0.00 0.00 0.00 70 1010.2
20260506124702 68 92 0.0 0.0 0.00 0.00 0.00 71 1010.3
20260506124200 68 278 0.0 0.0 0.00 0.00 0.00 72 1010.5
20260506123657 68 98 0.0 0.0 0.00 0.00 0.00 73 1010.2
20260506123155 68 163 0.0 1.0 0.00 0.00 0.00 72 1010.2
20260506122652 68 100 0.0 1.0 0.00 0.00 0.00 73 1010.3
20260506122149 67 270 0.0 0.0 0.00 0.00 0.00 75 1010.1
20260506121647 67 148 0.0 0.0 0.00 0.00 0.00 74 1010.3
20260506121143 66 205 0.0 0.0 0.00 0.00 0.00 75 1010.3
20260506120641 65 212 1.0 1.0 0.00 0.00 0.00 77 1010.5
20260506120138 65 259 0.0 0.0 0.00 0.00 0.00 78 1010.5
20260506115637 65 272 0.0 0.0 0.00 0.00 0.00 77 1010.6
20260506115134 65 271 0.0 0.0 0.00 0.00 0.00 78 1010.4
20260506114631 65 256 0.0 0.0 0.00 0.00 0.00 78 1010.3
20260506114129 65 268 0.0 0.0 0.00 0.00 0.00 77 1010.4
20260506113627 65 175 0.0 0.0 0.00 0.00 0.00 79 1010.6
20260506113125 65 271 0.0 0.0 0.00 0.00 0.00 78 1010.4
20260506112621 65 267 0.0 0.0 0.00 0.00 0.00 78 1010.6
20260506112118 65 272 0.0 0.0 0.00 0.00 0.00 78 1010.4
20260506111616 65 265 0.0 0.0 0.00 0.00 0.00 78 1010.3
20260506111113 64 274 0.0 0.0 0.00 0.00 0.00 78 1010.3
20260506110611 64 248 1.0 3.0 0.00 0.00 0.00 79 1010.3
20260506110108 64 170 0.0 0.0 0.00 0.00 0.00 80 1010.5
20260506105604 64 254 0.0 0.0 0.00 0.00 0.00 80 1010.5
20260506105101 64 256 0.0 0.0 0.00 0.00 0.00 80 1010.4
20260506104559 63 274 0.0 0.0 0.00 0.00 0.00 81 1010.5
20260506104056 63 111 0.0 0.0 0.00 0.00 0.00 81 1010.3
20260506103554 63 201 0.0 0.0 0.00 0.00 0.00 82 1010.3
20260506103050 63 171 0.0 0.0 0.00 0.00 0.00 82 1010.4
20260506102549 63 194 0.0 0.0 0.00 0.00 0.00 82 1010.4
20260506102046 63 253 0.0 0.0 0.00 0.00 0.00 82 1010.4
20260506101542 63 162 0.0 0.0 0.00 0.00 0.00 82 1010.5
20260506101040 63 219 0.0 0.0 0.00 0.00 0.00 82 1010.5
20260506100538 63 250 0.0 0.0 0.00 0.00 0.00 82 1010.5
20260506100036 63 229 0.0 0.0 0.00 0.00 0.00 83 1010.6
20260506095534 63 285 0.0 0.0 0.00 0.00 0.00 82 1010.3
20260506095030 64 267 0.0 0.0 0.00 0.00 0.00 82 1010.5
20260506094528 64 173 0.0 0.0 0.00 0.00 0.00 82 1010.2
20260506094026 64 217 0.0 0.0 0.00 0.00 0.00 82 1010.4
20260506093524 64 157 0.0 0.0 0.00 0.00 0.00 82 1010.2
20260506093021 64 258 0.0 0.0 0.00 0.00 0.00 83 1010.2
20260506092519 64 188 0.0 0.0 0.00 0.00 0.00 82 1010.3
20260506092015 64 202 0.0 0.0 0.00 0.00 0.00 82 1010.3
20260506091514 64 206 0.0 0.0 0.00 0.00 0.00 82 1010.4
20260506091011 64 124 0.0 0.0 0.00 0.00 0.00 82 1010.3
20260506090509 64 180 0.0 0.0 0.00 0.00 0.00 82 1010.3
20260506090004 64 148 0.0 1.0 0.00 0.00 0.00 82 1010.4
20260506085501 64 162 0.0 0.0 0.00 0.00 0.00 82 1010.2
20260506084958 64 210 0.0 1.0 0.00 0.00 0.00 81 1010.6
20260506084454 64 275 0.0 0.0 0.00 0.00 0.00 81 1010.6
20260506083951 64 196 0.0 0.0 0.00 0.00 0.00 82 1010.6
20260506083448 64 267 0.0 0.0 0.00 0.00 0.00 82 1010.5
20260506082945 64 268 0.0 0.0 0.00 0.00 0.00 82 1010.7
20260506082442 64 231 0.0 0.0 0.00 0.00 0.00 82 1010.5
20260506081938 64 266 0.0 0.0 0.00 0.00 0.00 82 1010.6
20260506081437 64 270 0.0 0.0 0.00 0.00 0.00 82 1010.7
20260506080933 65 274 0.0 0.0 0.00 0.00 0.00 81 1010.7
20260506080430 65 266 0.0 0.0 0.00 0.00 0.00 81 1010.7
20260506073414 65 242 0.0 0.0 0.00 0.00 0.00 81 1010.5
20260506072912 65 152 0.0 0.0 0.00 0.00 0.00 81 1010.6
20260506072409 65 166 0.0 0.0 0.00 0.00 0.00 80 1010.5
20260506071906 65 172 0.0 0.0 0.00 0.00 0.00 81 1010.7
20260506071405 65 137 0.0 0.0 0.00 0.00 0.00 81 1010.8
20260506070901 65 270 0.0 0.0 0.00 0.00 0.00 80 1010.7
20260506070358 65 227 0.0 0.0 0.00 0.00 0.00 80 1010.6
20260506062335 66 272 0.0 0.0 0.00 0.00 0.00 80 1010.8
20260506061831 66 118 0.0 0.0 0.00 0.00 0.00 80 1010.8
20260506061327 66 218 0.0 0.0 0.00 0.00 0.00 80 1010.8
20260506060826 66 238 0.0 0.0 0.00 0.00 0.00 80 1010.8
20260506060323 66 253 0.0 0.0 0.00 0.00 0.00 80 1010.7
20260506051255 67 290 0.0 0.0 0.00 0.00 0.00 77 1011.0
20260506050753 67 232 0.0 0.0 0.00 0.00 0.00 77 1011.1
20260506050250 67 253 0.0 0.0 0.00 0.00 0.00 77 1011.3
20260506044741 67 118 1.0 1.0 0.00 0.00 0.00 77 1011.1
20260506044238 67 148 0.0 0.0 0.00 0.00 0.00 77 1011.3
20260506043736 67 268 0.0 0.0 0.00 0.00 0.00 77 1011.3
20260506043233 67 179 0.0 0.0 0.00 0.00 0.00 77 1011.1
20260506042731 67 204 0.0 0.0 0.00 0.00 0.00 76 1011.2
20260506042229 67 253 0.0 0.0 0.00 0.00 0.00 76 1011.5
20260506041728 67 271 0.0 0.0 0.00 0.00 0.00 76 1011.2
20260506041224 67 196 0.0 0.0 0.00 0.00 0.00 76 1011.3
20260506040722 67 210 0.0 0.0 0.00 0.00 0.00 75 1011.2
20260506040219 67 255 0.0 0.0 0.00 0.00 0.00 75 1011.0
20260506035715 67 257 0.0 0.0 0.00 0.00 0.00 75 1011.3
20260506035213 67 167 0.0 0.0 0.00 0.00 0.00 74 1011.1
20260506034709 67 239 0.0 0.0 0.00 0.00 0.00 74 1011.2
20260506034207 67 231 0.0 0.0 0.00 0.00 0.00 74 1011.1
20260506033704 67 51 0.0 0.0 0.00 0.00 0.00 74 1011.4
20260506033200 68 135 0.0 1.0 0.00 0.00 0.00 73 1011.3
20260506032657 68 247 0.0 0.0 0.00 0.00 0.00 72 1011.2
20260506032154 68 246 0.0 0.0 0.00 0.00 0.00 72 1011.4
20260506031651 68 205 0.0 0.0 0.00 0.00 0.00 71 1011.2
20260506031148 68 148 0.0 0.0 0.00 0.00 0.00 71 1011.2
20260506030647 68 206 0.0 0.0 0.00 0.00 0.00 71 1011.2
20260506030143 68 264 0.0 0.0 0.00 0.00 0.00 71 1011.4
20260506025640 68 250 0.0 0.0 0.00 0.00 0.00 71 1011.3
20260506025136 68 238 0.0 0.0 0.00 0.00 0.00 70 1011.1
20260506024634 68 259 1.0 2.0 0.00 0.00 0.00 70 1011.4
20260506024130 69 139 0.0 1.0 0.00 0.00 0.00 69 1011.3
20260506023626 69 140 0.0 0.0 0.00 0.00 0.00 68 1011.2
20260506023124 69 160 0.0 0.0 0.00 0.00 0.00 68 1011.3
20260506022621 69 247 0.0 0.0 0.00 0.00 0.00 67 1011.4
20260506022118 69 85 0.0 0.0 0.00 0.00 0.00 67 1011.5
20260506021616 69 85 0.0 0.0 0.00 0.00 0.00 67 1011.3
20260506021113 69 150 0.0 0.0 0.00 0.00 0.00 67 1011.4
20260506020610 69 227 0.0 0.0 0.00 0.00 0.00 65 1011.3
20260506020108 70 130 1.0 2.0 0.00 0.00 0.00 65 1011.2
20260506015605 70 103 0.0 0.0 0.00 0.00 0.00 65 1011.2
20260506015102 70 185 0.0 0.0 0.00 0.00 0.00 64 1011.2
20260506014559 70 160 0.0 0.0 0.00 0.00 0.00 64 1011.2
20260506014055 70 89 0.0 0.0 0.00 0.00 0.00 63 1011.0
20260506013553 70 134 1.0 1.0 0.00 0.00 0.00 63 1011.1
20260506013050 70 266 0.0 0.0 0.00 0.00 0.00 62 1011.1
20260506012546 70 243 0.0 0.0 0.00 0.00 0.00 63 1011.3
20260506012043 70 199 0.0 0.0 0.00 0.00 0.00 63 1010.9
20260506011541 71 149 0.0 0.0 0.00 0.00 0.00 63 1010.7
20260506011036 71 122 0.0 0.0 0.00 0.00 0.00 62 1010.9
20260506010531 71 227 0.0 0.0 0.00 0.00 0.00 62 1011.1
20260506010027 70 277 0.0 0.0 0.00 0.00 0.00 63 1010.9
20260506005524 71 140 0.0 0.0 0.00 0.00 0.00 63 1010.9
20260506005020 71 194 0.0 0.0 0.00 0.00 0.00 63 1010.9
20260506004518 71 73 1.0 1.0 0.00 0.00 0.00 63 1010.9
20260506004014 71 153 0.0 0.0 0.00 0.00 0.00 62 1010.8
20260506003510 71 56 0.0 0.0 0.00 0.00 0.00 62 1010.7
20260506003006 71 250 0.0 0.0 0.00 0.00 0.00 62 1010.5
20260506002502 71 121 0.0 0.0 0.00 0.00 0.00 62 1010.7
20260506001958 72 152 0.0 0.0 0.00 0.00 0.00 62 1010.6
20260506001455 72 154 0.0 1.0 0.00 0.00 0.00 61 1010.4
20260506000952 73 191 0.0 0.0 0.00 0.00 0.00 59 1010.2
20260506000449 73 225 0.0 0.0 0.00 0.00 0.00 57 1010.5
20260505235946 74 33 0.0 0.0 0.00 0.00 0.00 55 1010.5
20260505235445 74 216 0.0 0.0 0.00 0.00 0.00 54 1010.2
20260505234941 74 134 0.0 1.0 0.00 0.00 0.00 53 1010.3
20260505234438 75 247 0.0 0.0 0.00 0.00 0.00 51 1010.2
20260505233935 75 241 0.0 0.0 0.00 0.00 0.00 51 1010.1
20260505233433 75 111 0.0 0.0 0.00 0.00 0.00 50 1010.1
20260505232930 76 278 0.0 0.0 0.00 0.00 0.00 49 1009.8
20260505232428 76 107 0.0 0.0 0.00 0.00 0.00 48 1009.9
20260505231925 77 93 0.0 1.0 0.00 0.00 0.00 46 1009.7
20260505231422 77 268 0.0 0.0 0.00 0.00 0.00 45 1009.8
20260505230920 78 259 0.0 0.0 0.00 0.00 0.00 43 1009.8
20260505230418 78 48 0.0 1.0 0.00 0.00 0.00 43 1009.6
20260505225914 78 265 0.0 0.0 0.00 0.00 0.00 43 1009.6
20260505225411 78 254 0.0 0.0 0.00 0.00 0.00 44 1009.3
20260505224906 78 264 0.0 0.0 0.00 0.00 0.00 44 1009.6
20260505224404 78 277 0.0 0.0 0.00 0.00 0.00 44 1009.8
20260505223901 78 213 0.0 0.0 0.00 0.00 0.00 43 1009.5
20260505223358 79 320 2.0 3.0 0.00 0.00 0.00 44 1009.5
20260505222853 79 263 0.0 0.0 0.00 0.00 0.00 43 1009.7
20260505222350 79 271 0.0 0.0 0.00 0.00 0.00 43 1009.6
20260505221847 80 242 0.0 0.0 0.00 0.00 0.00 43 1009.5
20260505221344 80 158 0.0 0.0 0.00 0.00 0.00 41 1009.5
20260505220841 80 151 0.0 0.0 0.00 0.00 0.00 42 1009.6
20260505220338 80 262 0.0 1.0 0.00 0.00 0.00 42 1009.6
20260505215836 80 265 0.0 0.0 0.00 0.00 0.00 43 1009.3
20260505215333 81 128 0.0 0.0 0.00 0.00 0.00 41 1009.3
20260505214831 81 279 1.0 2.0 0.00 0.00 0.00 41 1009.5
20260505214329 81 286 0.0 0.0 0.00 0.00 0.00 39 1009.2
20260505213825 81 241 0.0 0.0 0.00 0.00 0.00 39 1009.1
20260505213323 81 254 0.0 0.0 0.00 0.00 0.00 39 1009.2
20260505212819 81 305 0.0 0.0 0.00 0.00 0.00 41 1009.2
20260505212317 81 175 0.0 0.0 0.00 0.00 0.00 40 1009.2
20260505211812 82 206 0.0 1.0 0.00 0.00 0.00 38 1009.3
20260505211310 82 235 0.0 0.0 0.00 0.00 0.00 38 1009.1
20260505210806 82 353 0.0 0.0 0.00 0.00 0.00 37 1008.8
20260505210303 82 265 0.0 0.0 0.00 0.00 0.00 38 1009.2
20260505205800 82 274 0.0 0.0 0.00 0.00 0.00 38 1009.0
20260505205259 82 186 0.0 0.0 0.00 0.00 0.00 37 1009.2
20260505204755 82 252 0.0 0.0 0.00 0.00 0.00 39 1008.9
20260505204253 83 106 0.0 0.0 0.00 0.00 0.00 38 1008.9
20260505203750 83 242 0.0 0.0 0.00 0.00 0.00 38 1008.8
20260505203247 83 236 0.0 0.0 0.00 0.00 0.00 38 1009.1
20260505202742 83 196 0.0 0.0 0.00 0.00 0.00 38 1009.0
20260505202239 83 243 0.0 0.0 0.00 0.00 0.00 37 1008.7
20260505201735 83 231 1.0 2.0 0.00 0.00 0.00 38 1008.7
20260505201233 83 274 0.0 0.0 0.00 0.00 0.00 40 1009.0
20260505200731 83 262 0.0 0.0 0.00 0.00 0.00 40 1009.1
20260505200228 83 117 0.0 0.0 0.00 0.00 0.00 40 1009.0
20260505195723 83 254 0.0 0.0 0.00 0.00 0.00 40 1009.0
20260505195221 83 11 0.0 2.0 0.00 0.00 0.00 40 1009.0
20260505194718 83 274 0.0 0.0 0.00 0.00 0.00 42 1009.1
20260505194215 83 71 0.0 0.0 0.00 0.00 0.00 39 1009.3
20260505193710 84 269 0.0 0.0 0.00 0.00 0.00 40 1009.2
20260505193208 84 42 0.0 1.0 0.00 0.00 0.00 39 1009.2
20260505192707 85 172 0.0 0.0 0.00 0.00 0.00 41 1009.3
20260505192203 85 289 0.0 0.0 0.00 0.00 0.00 38 1009.2
20260505191702 85 273 0.0 0.0 0.00 0.00 0.00 38 1009.1
20260505191200 84 287 0.0 0.0 0.00 0.00 0.00 40 1009.2
20260505190656 85 114 0.0 1.0 0.00 0.00 0.00 39 1009.3
20260505190155 85 277 0.0 0.0 0.00 0.00 0.00 41 1009.8
20260505185653 84 273 0.0 0.0 0.00 0.00 0.00 41 1009.6
20260505185149 84 281 0.0 0.0 0.00 0.00 0.00 40 1009.8
20260505184645 85 269 0.0 0.0 0.00 0.00 0.00 40 1010.0
20260505184142 85 316 0.0 0.0 0.00 0.00 0.00 39 1009.8
20260505183639 85 220 0.0 0.0 0.00 0.00 0.00 38 1010.0
20260505183137 84 111 0.0 1.0 0.00 0.00 0.00 43 1009.9
20260505182633 85 353 2.0 2.0 0.00 0.00 0.00 39 1010.1
20260505182130 84 293 0.0 0.0 0.00 0.00 0.00 41 1010.2
20260505181626 85 73 1.0 3.0 0.00 0.00 0.00 40 1010.1
20260505181124 85 258 0.0 0.0 0.00 0.00 0.00 39 1010.3
20260505180620 84 254 0.0 0.0 0.00 0.00 0.00 43 1010.3
20260505180118 85 308 0.0 0.0 0.00 0.00 0.00 41 1010.6
20260505175613 84 157 0.0 0.0 0.00 0.00 0.00 42 1010.5
20260505175110 83 344 0.0 0.0 0.00 0.00 0.00 42 1010.3
20260505174606 84 304 0.0 0.0 0.00 0.00 0.00 41 1010.7
20260505174102 83 348 0.0 1.0 0.00 0.00 0.00 45 1010.8
20260505173559 83 281 0.0 0.0 0.00 0.00 0.00 44 1010.6
20260505173056 83 253 0.0 0.0 0.00 0.00 0.00 44 1010.6